^^
Station Historical Data
Daily Summary for April 30, 2017 Units:  English    Metric   Both
« Previous Day
Next Day »
Daily Weekly Monthly Yearly Custom
  High: Low: Average:
Temperature: 66.4 °F 51.5 °F 60.3 °F
Dew Point: 56.4 °F 42.9 °F 48.6 °F
Humidity: 83 % 49 % 66 %
Wind Speed: 4.6 mph 0.0 mph 0.5 mph
Wind Gust: 9.2 mph - -
Wind:- - ENE
Pressure: 30.21 in 30.11 in -
Precipitation: 0.00 in    
Historical Graphs
 
 
Tabular Data for April 30, 2017
Time Temperature Dew Point Pressure Wind Wind Speed Wind Gust Humidity Rainfall Rate (Hourly) solar Conditions
00:03 64.1 °F 56.4 °F 30.14 in NNE 3.6 mph 8.0 mph 76 % 0.00 in 0.0 W/m2 RA
00:08 64.1 °F 56.0 °F 30.14 in NNE 1.5 mph 4.6 mph 75 % 0.00 in 0.0 W/m2 RA
00:13 64.1 °F 56.0 °F 30.14 in NNE 1.1 mph 3.5 mph 75 % 0.00 in 0.0 W/m2 SCT
00:18 64.0 °F 55.9 °F 30.14 in NNE 0.4 mph 3.5 mph 75 % 0.00 in 0.0 W/m2 SCT
00:23 63.8 °F 55.7 °F 30.14 in NNE 0.4 mph   75 % 0.00 in 0.0 W/m2 SCT
00:28 63.7 °F 56.0 °F 30.14 in Calm     76 % 0.00 in 0.0 W/m2 SCT
00:33 63.5 °F 55.8 °F 30.14 in NNE 0.8 mph 3.5 mph 76 % 0.00 in 0.0 W/m2 SCT
00:34 63.4 °F 55.7 °F 30.14 in NNE 0.2 mph 2.3 mph 76 % 0.00 in 0.0 W/m2 SCT
00:39 63.2 °F 55.5 °F 30.13 in NNE 0.6 mph 2.3 mph 76 % 0.00 in 0.0 W/m2 SCT
00:44 63.1 °F 55.8 °F 30.14 in Calm     77 % 0.00 in 0.0 W/m2 SCT
00:49 63.0 °F 55.7 °F 30.14 in Calm     77 % 0.00 in 0.0 W/m2 SCT
00:54 62.9 °F 55.6 °F 30.14 in Calm     77 % 0.00 in 0.0 W/m2 SCT
00:59 62.7 °F 55.4 °F 30.13 in Calm   1.2 mph 77 % 0.00 in 0.0 W/m2 SCT
01:04 62.5 °F 55.2 °F 30.14 in Calm     77 % 0.00 in 0.0 W/m2 SCT
01:09 62.4 °F 55.4 °F 30.14 in Calm     78 % 0.00 in 0.0 W/m2 SCT
01:14 62.3 °F 55.4 °F 30.14 in Calm     78 % 0.00 in 0.0 W/m2 SCT
01:19 62.1 °F 55.2 °F 30.14 in Calm     78 % 0.00 in 0.0 W/m2 SCT
01:24 62.0 °F 55.1 °F 30.14 in Calm     78 % 0.00 in 0.0 W/m2 SCT
01:29 62.0 °F 55.1 °F 30.14 in Calm     78 % 0.00 in 0.0 W/m2 SCT
01:34 61.9 °F 55.0 °F 30.14 in Calm     78 % 0.00 in 0.0 W/m2 SCT
01:39 62.0 °F 55.1 °F 30.14 in Calm     78 % 0.00 in 0.0 W/m2 SCT
01:44 61.8 °F 54.9 °F 30.14 in Calm     78 % 0.00 in 0.0 W/m2 SCT
01:49 61.8 °F 54.9 °F 30.14 in Calm     78 % 0.00 in 0.0 W/m2 SCT
01:54 61.7 °F 54.8 °F 30.14 in Calm     78 % 0.00 in 0.0 W/m2 SCT
01:59 61.5 °F 54.6 °F 30.14 in Calm     78 % 0.00 in 0.0 W/m2 SCT
02:04 61.4 °F 54.5 °F 30.14 in Calm   1.2 mph 78 % 0.00 in 0.0 W/m2 SCT
02:09 61.4 °F 54.5 °F 30.14 in Calm     78 % 0.00 in 0.0 W/m2 SCT
02:14 61.4 °F 54.5 °F 30.14 in Calm   2.3 mph 78 % 0.00 in 0.0 W/m2 SCT
02:19 61.4 °F 54.1 °F 30.14 in Calm     77 % 0.00 in 0.0 W/m2 SCT
02:24 61.4 °F 54.1 °F 30.14 in North 0.6 mph 2.3 mph 77 % 0.00 in 0.0 W/m2 SCT
02:29 61.3 °F 54.0 °F 30.14 in North 0.2 mph 2.3 mph 77 % 0.00 in 0.0 W/m2 SCT
02:34 61.2 °F 53.6 °F 30.14 in Calm   1.2 mph 76 % 0.00 in 0.0 W/m2 SCT
02:39 61.1 °F 53.5 °F 30.14 in NNE 0.1 mph 2.3 mph 76 % 0.00 in 0.0 W/m2 SCT
02:44 60.9 °F 53.3 °F 30.13 in NNE 0.1 mph 1.0 mph 76 % 0.00 in 0.0 W/m2 SCT
02:49 60.8 °F 53.2 °F 30.14 in Calm     76 % 0.00 in 0.0 W/m2 SCT
02:54 60.7 °F 53.1 °F 30.14 in North 0.1 mph 1.2 mph 76 % 0.00 in 0.0 W/m2 SCT
02:59 60.4 °F 53.2 °F 30.15 in Calm     77 % 0.00 in 0.0 W/m2 SCT
03:04 60.4 °F 53.2 °F 30.15 in Calm   1.2 mph 77 % 0.00 in 0.0 W/m2 SCT
03:10 60.3 °F 53.1 °F 30.15 in Calm   2.3 mph 77 % 0.00 in 0.0 W/m2 SCT
03:15 60.2 °F 53.0 °F 30.15 in Calm     77 % 0.00 in 0.0 W/m2 SCT
03:20 60.1 °F 52.9 °F 30.15 in Calm   2.0 mph 77 % 0.00 in 0.0 W/m2 CLR
03:25 60.0 °F 52.8 °F 30.15 in Calm   2.0 mph 77 % 0.00 in 0.0 W/m2 CLR
03:30 59.9 °F 52.7 °F 30.15 in Calm   2.3 mph 77 % 0.00 in 0.0 W/m2 SCT
03:35 59.7 °F 52.5 °F 30.15 in Calm   2.3 mph 77 % 0.00 in 0.0 W/m2 SCT
03:40 59.6 °F 52.4 °F 30.15 in Calm     77 % 0.00 in 0.0 W/m2 SCT
03:45 59.5 °F 52.3 °F 30.15 in Calm   1.2 mph 77 % 0.00 in 0.0 W/m2 SCT
03:50 59.3 °F 52.1 °F 30.14 in Calm     77 % 0.00 in 0.0 W/m2 SCT
03:55 59.2 °F 52.3 °F 30.14 in Calm     78 % 0.00 in 0.0 W/m2 SCT
04:00 59.1 °F 52.2 °F 30.15 in Calm     78 % 0.00 in 0.0 W/m2 SCT
04:05 58.9 °F 52.1 °F 30.15 in Calm     78 % 0.00 in 0.0 W/m2 SCT
04:10 58.8 °F 52.3 °F 30.15 in Calm     79 % 0.00 in 0.0 W/m2 SCT
04:15 58.7 °F 52.2 °F 30.14 in Calm     79 % 0.00 in 0.0 W/m2 SCT
04:20 58.5 °F 52.4 °F 30.14 in Calm     80 % 0.00 in 0.0 W/m2 SCT
04:25 58.4 °F 52.3 °F 30.14 in Calm     80 % 0.00 in 0.0 W/m2 SCT
04:30 58.3 °F 52.2 °F 30.14 in Calm     80 % 0.00 in 0.0 W/m2 SCT
04:35 58.3 °F 52.5 °F 30.14 in Calm     81 % 0.00 in 0.0 W/m2 SCT
04:40 58.2 °F 52.4 °F 30.14 in Calm     81 % 0.00 in 0.0 W/m2 SCT
04:45 58.1 °F 52.3 °F 30.14 in Calm     81 % 0.00 in 0.0 W/m2 SCT
04:50 58.0 °F 52.2 °F 30.14 in Calm     81 % 0.00 in 0.0 W/m2 SCT
04:55 57.9 °F 52.1 °F 30.13 in Calm     81 % 0.00 in 0.0 W/m2 SCT
05:00 57.7 °F 51.9 °F 30.14 in Calm     81 % 0.00 in 0.0 W/m2 SCT
05:05 57.7 °F 51.9 °F 30.14 in Calm     81 % 0.00 in 0.0 W/m2 SCT
05:10 57.6 °F 51.5 °F 30.14 in Calm     80 % 0.00 in 0.0 W/m2 SCT
05:15 57.5 °F 51.4 °F 30.14 in Calm     80 % 0.00 in 0.0 W/m2 SCT
05:20 57.5 °F 51.0 °F 30.14 in Calm     79 % 0.00 in 0.0 W/m2 SCT
05:25 57.3 °F 50.5 °F 30.14 in Calm     78 % 0.00 in 0.0 W/m2 SCT
05:30 57.4 °F 49.9 °F 30.15 in Calm     76 % 0.00 in 0.0 W/m2 SCT
05:35 57.4 °F 49.5 °F 30.15 in Calm     75 % 0.00 in 0.0 W/m2 SCT
05:40 57.3 °F 49.4 °F 30.15 in North 0.6 mph 2.3 mph 75 % 0.00 in 0.0 W/m2 SCT
05:45 57.3 °F 49.1 °F 30.15 in Calm     74 % 0.00 in 0.0 W/m2 SCT
05:50 57.3 °F 48.7 °F 30.16 in Calm     73 % 0.00 in 0.0 W/m2 SCT
05:55 57.2 °F 48.6 °F 30.16 in Calm   1.2 mph 73 % 0.00 in 0.0 W/m2 SCT
06:00 57.2 °F 47.9 °F 30.16 in NNE 0.4 mph 1.0 mph 71 % 0.00 in 0.0 W/m2 SCT
06:05 57.3 °F 47.2 °F 30.17 in NE 0.7 mph 4.0 mph 69 % 0.00 in 0.0 W/m2 SCT
06:10 57.3 °F 46.0 °F 30.17 in Calm   2.3 mph 66 % 0.00 in 0.0 W/m2 SCT
06:15 57.5 °F 45.8 °F 30.18 in NNE 0.5 mph 4.0 mph 65 % 0.00 in 7.0 W/m2 SCT
06:20 57.6 °F 45.5 °F 30.18 in NNE 0.8 mph 3.5 mph 64 % 0.00 in 7.0 W/m2 SCT
06:25 57.6 °F 45.5 °F 30.18 in North 0.8 mph 3.5 mph 64 % 0.00 in 12.0 W/m2 SCT
06:30 57.6 °F 45.5 °F 30.17 in NNE 1.9 mph 5.8 mph 64 % 0.00 in 18.0 W/m2 SCT
06:35 57.5 °F 45.4 °F 30.18 in NE 3.1 mph 4.6 mph 64 % 0.00 in 23.0 W/m2 SCT
06:40 57.5 °F 45.0 °F 30.18 in NNE 1.2 mph 3.5 mph 63 % 0.00 in 26.0 W/m2 SCT
06:45 57.5 °F 45.0 °F 30.18 in NE 1.1 mph 6.9 mph 63 % 0.00 in 28.0 W/m2 SCT
06:50 57.6 °F 45.1 °F 30.18 in NNE 0.6 mph 3.0 mph 63 % 0.00 in 23.0 W/m2 BKN
06:55 57.6 °F 45.1 °F 30.18 in NNE 0.3 mph 3.5 mph 63 % 0.00 in 26.0 W/m2 BKN
07:00 57.7 °F 45.2 °F 30.18 in NNE 2.4 mph 9.2 mph 63 % 0.00 in 32.0 W/m2 BKN
07:05 57.8 °F 45.3 °F 30.19 in Calm   4.6 mph 63 % 0.00 in 40.0 W/m2 BKN
07:10 57.9 °F 45.4 °F 30.19 in NNE 3.5 mph 6.9 mph 63 % 0.00 in 35.0 W/m2 BKN
07:15 57.9 °F 45.4 °F 30.20 in Calm   5.8 mph 63 % 0.00 in 23.0 W/m2 OVC
07:17 57.9 °F 45.4 °F 30.20 in Calm     63 % 0.00 in 23.0 W/m2 OVC
07:22 57.9 °F 45.0 °F 30.19 in Calm     62 % 0.00 in 26.0 W/m2 OVC
07:27 58.0 °F 45.5 °F 30.20 in NNE 2.3 mph 8.1 mph 63 % 0.00 in 33.0 W/m2 OVC
07:32 58.0 °F 45.0 °F 30.20 in NNE 0.2 mph   62 % 0.00 in 39.0 W/m2 OVC
07:37 58.0 °F 45.0 °F 30.20 in NNE 3.8 mph 5.8 mph 62 % 0.00 in 37.0 W/m2 OVC
07:42 58.0 °F 45.0 °F 30.20 in NNE 1.0 mph 3.5 mph 62 % 0.00 in 47.0 W/m2 OVC
07:47 58.0 °F 45.0 °F 30.20 in NE 0.1 mph 1.2 mph 62 % 0.00 in 58.0 W/m2 OVC
07:52 58.0 °F 45.0 °F 30.20 in NNE 1.8 mph 8.1 mph 62 % 0.00 in 74.0 W/m2 BKN
07:57 58.0 °F 45.0 °F 30.20 in Calm   2.3 mph 62 % 0.00 in 79.0 W/m2 BKN
08:02 58.1 °F 45.6 °F 30.21 in NNE 4.6 mph 9.2 mph 63 % 0.00 in 77.0 W/m2 BKN
08:07 58.0 °F 45.0 °F 30.21 in NNE 3.4 mph 8.1 mph 62 % 0.00 in 56.0 W/m2 OVC
08:12 58.1 °F 45.6 °F 30.20 in NNE 0.4 mph 3.5 mph 63 % 0.00 in 76.0 W/m2 OVC
08:17 58.0 °F 45.0 °F 30.20 in SE 0.5 mph 2.3 mph 62 % 0.00 in 139.0 W/m2 BKN
08:22 58.1 °F 45.1 °F 30.20 in NNE 0.3 mph 2.0 mph 62 % 0.00 in 149.0 W/m2 BKN
08:27 58.3 °F 45.3 °F 30.20 in Calm   5.8 mph 62 % 0.00 in 109.0 W/m2 BKN
08:32 58.4 °F 45.8 °F 30.20 in Calm   2.3 mph 63 % 0.00 in 102.0 W/m2 BKN
08:37 58.4 °F 45.4 °F 30.20 in Calm     62 % 0.00 in 95.0 W/m2 OVC
08:42 58.5 °F 45.9 °F 30.21 in NE 1.6 mph 3.5 mph 63 % 0.00 in 83.0 W/m2 OVC
08:47 58.4 °F 45.8 °F 30.21 in Calm   3.5 mph 63 % 0.00 in 53.0 W/m2 OVC
08:52 58.3 °F 45.8 °F 30.21 in Calm     63 % 0.00 in 47.0 W/m2 OVC
08:57 58.3 °F 45.8 °F 30.21 in Calm     63 % 0.00 in 104.0 W/m2 OVC
09:02 58.6 °F 46.5 °F 30.21 in Calm     64 % 0.00 in 192.0 W/m2 BKN
09:07 59.1 °F 46.1 °F 30.20 in Calm     62 % 0.00 in 213.0 W/m2 BKN
09:12 59.7 °F 47.1 °F 30.20 in Calm     63 % 0.00 in 225.0 W/m2 SCT
09:17 59.7 °F 47.1 °F 30.20 in Calm     63 % 0.00 in 121.0 W/m2 BKN
09:22 59.7 °F 46.7 °F 30.20 in Calm     62 % 0.00 in 172.0 W/m2 BKN
09:27 59.8 °F 46.7 °F 30.19 in Calm     62 % 0.00 in 292.0 W/m2 SCT
09:32 60.0 °F 46.9 °F 30.19 in ENE 0.1 mph   62 % 0.00 in 230.0 W/m2 BKN
09:37 60.3 °F 47.2 °F 30.19 in Calm     62 % 0.00 in 218.0 W/m2 BKN
09:42 60.6 °F 47.1 °F 30.18 in Calm     61 % 0.00 in 271.0 W/m2 SCT
09:47 61.0 °F 47.0 °F 30.18 in Calm   2.3 mph 60 % 0.00 in 271.0 W/m2 BKN
09:52 61.5 °F 47.9 °F 30.18 in ENE 0.3 mph 2.3 mph 61 % 0.00 in 311.0 W/m2 SCT
09:57 61.8 °F 48.2 °F 30.18 in Calm   1.2 mph 61 % 0.00 in 316.0 W/m2 SCT
10:02 62.3 °F 48.2 °F 30.18 in NE 0.1 mph 2.3 mph 60 % 0.00 in 381.0 W/m2 CLR
10:07 63.0 °F 49.3 °F 30.18 in Calm   1.2 mph 61 % 0.00 in 410.0 W/m2 SCT
10:12 63.2 °F 48.6 °F 30.18 in NE 0.6 mph 5.0 mph 59 % 0.00 in 345.0 W/m2 SCT
10:17 63.4 °F 49.3 °F 30.18 in East 0.2 mph 1.2 mph 60 % 0.00 in 431.0 W/m2 SCT
10:22 63.8 °F 50.1 °F 30.18 in ESE 0.8 mph 3.5 mph 61 % 0.00 in 392.0 W/m2 SCT
10:27 64.1 °F 49.9 °F 30.18 in ESE 1.5 mph 5.8 mph 60 % 0.00 in 420.0 W/m2 FEW
10:32 64.3 °F 50.6 °F 30.18 in East 1.9 mph 4.6 mph 61 % 0.00 in 272.0 W/m2 BKN
10:37 64.1 °F 49.9 °F 30.18 in ESE 0.1 mph 2.3 mph 60 % 0.00 in 255.0 W/m2 BKN
10:42 64.3 °F 50.6 °F 30.18 in ESE 0.5 mph   61 % 0.00 in 209.0 W/m2 BKN
10:47 64.2 °F 50.5 °F 30.18 in Calm     61 % 0.00 in 204.0 W/m2 OVC
10:52 64.3 °F 50.6 °F 30.18 in Calm   2.3 mph 61 % 0.00 in 200.0 W/m2 OVC
10:57 64.4 °F 50.7 °F 30.18 in Calm   1.2 mph 61 % 0.00 in 188.0 W/m2 OVC
11:02 64.7 °F 50.9 °F 30.19 in Calm   1.2 mph 61 % 0.00 in 172.0 W/m2 OVC
11:07 64.4 °F 50.7 °F 30.18 in Calm     61 % 0.00 in 151.0 W/m2 OVC
11:12 64.5 °F 51.2 °F 30.18 in SE 0.4 mph 3.5 mph 62 % 0.00 in 179.0 W/m2 OVC
11:17 64.7 °F 51.4 °F 30.18 in ESE 0.2 mph 2.0 mph 62 % 0.00 in 230.0 W/m2 BKN
11:23 64.9 °F 51.6 °F 30.18 in ESE 0.7 mph 2.3 mph 62 % 0.00 in 260.0 W/m2 BKN
11:28 65.2 °F 51.8 °F 30.18 in ESE 0.2 mph 1.2 mph 62 % 0.00 in 202.0 W/m2 BKN
11:33 65.2 °F 51.8 °F 30.18 in ESE 0.4 mph 2.3 mph 62 % 0.00 in 204.0 W/m2 OVC
11:38 65.2 °F 51.8 °F 30.18 in Calm     62 % 0.00 in 221.0 W/m2 BKN
11:43 65.1 °F 51.8 °F 30.18 in East 0.6 mph 2.3 mph 62 % 0.00 in 225.0 W/m2 BKN
11:48 65.1 °F 51.8 °F 30.18 in East 0.1 mph 1.2 mph 62 % 0.00 in 237.0 W/m2 BKN
11:53 65.2 °F 51.8 °F 30.18 in Calm     62 % 0.00 in 230.0 W/m2 OVC
11:58 65.1 °F 52.2 °F 30.18 in ENE 0.1 mph 1.2 mph 63 % 0.00 in 279.0 W/m2 BKN
12:03 65.4 °F 52.0 °F 30.18 in ESE 0.1 mph 1.2 mph 62 % 0.00 in 243.0 W/m2 BKN
12:08 65.7 °F 52.3 °F 30.18 in ENE 0.2 mph 1.2 mph 62 % 0.00 in 265.0 W/m2 BKN
12:13 65.9 °F 52.5 °F 30.18 in ESE 0.8 mph 3.5 mph 62 % 0.00 in 220.0 W/m2 OVC
12:18 65.6 °F 51.8 °F 30.18 in ESE 1.0 mph 3.5 mph 61 % 0.00 in 211.0 W/m2 OVC
12:23 65.6 °F 51.8 °F 30.18 in Calm     61 % 0.00 in 239.0 W/m2 BKN
12:28 65.9 °F 52.1 °F 30.18 in SE 0.5 mph 2.3 mph 61 % 0.00 in 237.0 W/m2 OVC
12:33 65.9 °F 51.6 °F 30.18 in East 0.4 mph 2.3 mph 60 % 0.00 in 258.0 W/m2 BKN
12:38 65.7 °F 51.4 °F 30.17 in ESE 1.2 mph 3.5 mph 60 % 0.00 in 304.0 W/m2 BKN
12:44 65.7 °F 51.4 °F 30.16 in ESE 0.9 mph 4.6 mph 60 % 0.00 in 292.0 W/m2 BKN
12:49 65.8 °F 51.1 °F 30.16 in ESE 0.9 mph 3.5 mph 59 % 0.00 in 403.0 W/m2 BKN
12:54 66.0 °F 51.3 °F 30.16 in ESE 0.7 mph 4.6 mph 59 % 0.00 in 441.0 W/m2 SCT
12:59 66.2 °F 51.0 °F 30.16 in ESE 1.1 mph 3.5 mph 58 % 0.00 in 408.0 W/m2 BKN
13:04 66.1 °F 50.9 °F 30.16 in SE 1.1 mph 3.5 mph 58 % 0.00 in 366.0 W/m2 BKN
13:09 66.2 °F 51.0 °F 30.16 in East 0.7 mph 5.8 mph 58 % 0.00 in 471.0 W/m2 SCT
13:14 66.2 °F 50.0 °F 30.16 in East 2.4 mph 8.1 mph 56 % 0.00 in 431.0 W/m2 SCT
13:19 66.1 °F 49.9 °F 30.16 in SE 0.4 mph 3.5 mph 56 % 0.00 in 295.0 W/m2 BKN
13:24 66.0 °F 49.4 °F 30.16 in SE 2.0 mph 3.5 mph 55 % 0.00 in 346.0 W/m2 BKN
13:29 65.7 °F 49.6 °F 30.16 in ESE 2.5 mph 3.5 mph 56 % 0.00 in 301.0 W/m2 BKN
13:34 65.7 °F 49.6 °F 30.15 in East 1.2 mph 5.8 mph 56 % 0.00 in 374.0 W/m2 BKN
13:39 66.1 °F 49.5 °F 30.15 in ESE 1.2 mph 5.8 mph 55 % 0.00 in 466.0 W/m2 SCT
13:44 66.3 °F 49.2 °F 30.15 in SE 1.8 mph 9.2 mph 54 % 0.00 in 378.0 W/m2 BKN
13:49 66.3 °F 48.7 °F 30.15 in ESE 1.1 mph 3.5 mph 53 % 0.00 in 376.0 W/m2 BKN
13:54 66.4 °F 48.7 °F 30.16 in NE 0.9 mph 5.8 mph 53 % 0.00 in 332.0 W/m2 BKN
13:59 66.1 °F 49.0 °F 30.16 in ESE 1.0 mph 2.3 mph 54 % 0.00 in 234.0 W/m2 OVC
14:04 66.0 °F 48.4 °F 30.15 in East 0.2 mph 1.2 mph 53 % 0.00 in 237.0 W/m2 BKN
14:09 66.2 °F 49.1 °F 30.15 in SSE 0.4 mph   54 % 0.00 in 244.0 W/m2 BKN
14:14 66.1 °F 48.5 °F 30.16 in Calm     53 % 0.00 in 227.0 W/m2 BKN
14:19 65.9 °F 48.3 °F 30.15 in ENE 0.4 mph 3.5 mph 53 % 0.00 in 179.0 W/m2 OVC
14:24 65.7 °F 47.1 °F 30.15 in ESE 1.1 mph 3.5 mph 51 % 0.00 in 172.0 W/m2 OVC
14:29 65.7 °F 47.6 °F 30.15 in Calm   1.0 mph 52 % 0.00 in 206.0 W/m2 OVC
14:34 65.8 °F 47.2 °F 30.15 in ESE 0.1 mph   51 % 0.00 in 185.0 W/m2 OVC
14:39 65.7 °F 47.1 °F 30.15 in ESE 1.4 mph 3.5 mph 51 % 0.00 in 174.0 W/m2 OVC
14:44 65.6 °F 47.0 °F 30.15 in SE 0.2 mph 2.3 mph 51 % 0.00 in 232.0 W/m2 OVC
14:49 65.8 °F 46.6 °F 30.14 in ESE 0.3 mph 3.5 mph 50 % 0.00 in 207.0 W/m2 BKN
14:54 65.9 °F 47.3 °F 30.14 in East 1.6 mph 2.3 mph 51 % 0.00 in 297.0 W/m2 BKN
14:59 65.9 °F 47.3 °F 30.14 in ESE 0.6 mph 3.5 mph 51 % 0.00 in 195.0 W/m2 BKN
15:04 65.7 °F 46.0 °F 30.14 in ESE 0.7 mph 3.5 mph 49 % 0.00 in 241.0 W/m2 BKN
15:09 65.7 °F 46.5 °F 30.13 in ESE 0.2 mph 1.2 mph 50 % 0.00 in 237.0 W/m2 BKN
15:14 65.7 °F 47.1 °F 30.13 in Calm   2.3 mph 51 % 0.00 in 193.0 W/m2 OVC
15:19 65.5 °F 46.4 °F 30.13 in ESE 0.4 mph 2.3 mph 50 % 0.00 in 211.0 W/m2 BKN
15:24 65.5 °F 46.9 °F 30.14 in SSE 0.2 mph 1.2 mph 51 % 0.00 in 192.0 W/m2 OVC
15:29 65.8 °F 46.6 °F 30.13 in ESE 0.8 mph 3.5 mph 50 % 0.00 in 192.0 W/m2 OVC
15:34 65.8 °F 47.2 °F 30.14 in ESE 1.5 mph 3.5 mph 51 % 0.00 in 176.0 W/m2 OVC
15:39 65.5 °F 46.9 °F 30.14 in Calm   2.3 mph 51 % 0.00 in 151.0 W/m2 OVC
15:45 65.3 °F 47.2 °F 30.14 in ESE 0.1 mph 1.2 mph 52 % 0.00 in 139.0 W/m2 OVC
15:50 65.2 °F 47.1 °F 30.14 in Calm   3.0 mph 52 % 0.00 in 156.0 W/m2 OVC
15:55 65.3 °F 47.2 °F 30.14 in Calm   4.0 mph 52 % 0.00 in 172.0 W/m2 OVC
16:00 65.6 °F 47.5 °F 30.13 in Calm   1.2 mph 52 % 0.00 in 202.0 W/m2 BKN
16:05 65.6 °F 48.0 °F 30.13 in ESE 0.3 mph 2.3 mph 53 % 0.00 in 265.0 W/m2 BKN
16:10 65.8 °F 47.7 °F 30.13 in ESE 0.4 mph 2.3 mph 52 % 0.00 in 220.0 W/m2 BKN
16:15 65.5 °F 47.4 °F 30.13 in SE 0.3 mph 2.3 mph 52 % 0.00 in 186.0 W/m2 BKN
16:20 65.4 °F 47.8 °F 30.13 in ESE 0.1 mph 2.0 mph 53 % 0.00 in 206.0 W/m2 BKN
16:21 65.4 °F 47.8 °F 30.13 in Calm   2.3 mph 53 % 0.00 in 213.0 W/m2 BKN
16:26 65.7 °F 48.6 °F 30.12 in East 0.1 mph 1.2 mph 54 % 0.00 in 195.0 W/m2 BKN
16:31 65.6 °F 48.0 °F 30.13 in Calm     53 % 0.00 in 181.0 W/m2 BKN
16:36 65.2 °F 47.6 °F 30.14 in NE 0.5 mph 3.5 mph 53 % 0.00 in 151.0 W/m2 BKN
16:41 65.0 °F 47.9 °F 30.14 in ENE 2.1 mph 5.8 mph 54 % 0.00 in 167.0 W/m2 BKN
16:46 64.9 °F 47.4 °F 30.14 in Calm     53 % 0.00 in 169.0 W/m2 BKN
16:51 64.9 °F 47.9 °F 30.13 in Calm   3.5 mph 54 % 0.00 in 165.0 W/m2 BKN
16:56 64.9 °F 48.3 °F 30.13 in Calm     55 % 0.00 in 139.0 W/m2 BKN
17:01 64.8 °F 48.2 °F 30.12 in NE 0.2 mph 1.2 mph 55 % 0.00 in 137.0 W/m2 BKN
17:06 64.7 °F 47.7 °F 30.12 in ESE 0.4 mph 3.5 mph 54 % 0.00 in 155.0 W/m2 BKN
17:11 64.8 °F 48.2 °F 30.12 in ENE 0.4 mph 1.2 mph 55 % 0.00 in 156.0 W/m2 BKN
17:16 64.4 °F 47.9 °F 30.13 in ENE 0.1 mph 1.2 mph 55 % 0.00 in 135.0 W/m2 BKN
17:21 64.4 °F 47.9 °F 30.13 in ESE 0.4 mph 1.2 mph 55 % 0.00 in 153.0 W/m2 BKN
17:26 64.4 °F 47.4 °F 30.13 in ESE 0.1 mph 2.3 mph 54 % 0.00 in 156.0 W/m2 BKN
17:31 64.2 °F 47.7 °F 30.13 in East 0.1 mph 1.2 mph 55 % 0.00 in 190.0 W/m2 BKN
17:36 64.1 °F 47.6 °F 30.13 in East 0.4 mph 3.5 mph 55 % 0.00 in 155.0 W/m2 BKN
17:41 64.0 °F 47.5 °F 30.14 in East 0.2 mph 2.0 mph 55 % 0.00 in 134.0 W/m2 BKN
17:46 63.5 °F 47.5 °F 30.14 in Calm   2.3 mph 56 % 0.00 in 86.0 W/m2 BKN
17:47 63.4 °F 47.4 °F 30.14 in Calm     56 % 0.00 in 77.0 W/m2 OVC
17:52 63.2 °F 47.2 °F 30.15 in ENE 1.2 mph 6.9 mph 56 % 0.00 in 49.0 W/m2 OVC
17:57 62.8 °F 47.3 °F 30.15 in East 0.3 mph 2.3 mph 57 % 0.00 in 49.0 W/m2 OVC
18:02 62.4 °F 47.4 °F 30.14 in ENE 2.7 mph 2.7 mph 58 % 0.00 in 88.0 W/m2 OVC
18:07 62.2 °F 47.2 °F 30.14 in Calm   3.5 mph 58 % 0.00 in 88.0 W/m2 BKN
18:12 62.0 °F 47.0 °F 30.14 in East 1.2 mph 8.1 mph 58 % 0.00 in 54.0 W/m2 OVC
18:17 61.7 °F 47.2 °F 30.14 in North 0.9 mph 5.8 mph 59 % 0.00 in 69.0 W/m2 OVC
18:22 61.6 °F 47.1 °F 30.14 in East 0.3 mph 3.5 mph 59 % 0.00 in 93.0 W/m2 BKN
18:27 61.4 °F 47.4 °F 30.14 in East 1.8 mph 3.5 mph 60 % 0.00 in 104.0 W/m2 BKN
18:32 61.0 °F 47.4 °F 30.13 in East 0.8 mph 9.2 mph 61 % 0.00 in 77.0 W/m2 BKN
18:37 60.3 °F 47.2 °F 30.13 in NE 0.8 mph 5.8 mph 62 % 0.00 in 58.0 W/m2 BKN
18:42 59.7 °F 46.7 °F 30.14 in NE 0.3 mph 3.5 mph 62 % 0.00 in 44.0 W/m2 OVC
18:47 59.2 °F 46.6 °F 30.14 in East 0.9 mph 3.5 mph 63 % 0.00 in 39.0 W/m2 OVC
18:52 58.7 °F 46.1 °F 30.14 in NE 2.9 mph 4.6 mph 63 % 0.00 in 53.0 W/m2 BKN
18:57 58.4 °F 46.3 °F 30.14 in NE 0.7 mph 3.5 mph 64 % 0.00 in 49.0 W/m2 BKN
19:02 58.0 °F 45.9 °F 30.14 in NE 1.5 mph 3.5 mph 64 % 0.00 in 46.0 W/m2 BKN
19:07 57.7 °F 45.6 °F 30.13 in NE 0.2 mph 3.5 mph 64 % 0.00 in 47.0 W/m2 BKN
19:12 57.4 °F 45.7 °F 30.14 in NE 0.2 mph 4.6 mph 65 % 0.00 in 40.0 W/m2 BKN
19:18 57.2 °F 45.5 °F 30.14 in ENE 0.4 mph 2.0 mph 65 % 0.00 in 46.0 W/m2 SCT
19:23 57.0 °F 45.3 °F 30.14 in ENE 1.7 mph 5.8 mph 65 % 0.00 in 30.0 W/m2 BKN
19:28 56.8 °F 45.6 °F 30.14 in NE 0.4 mph 2.3 mph 66 % 0.00 in 23.0 W/m2 BKN
19:33 56.6 °F 45.4 °F 30.13 in Calm   1.2 mph 66 % 0.00 in 16.0 W/m2 BKN
19:38 56.4 °F 45.2 °F 30.14 in NNE 0.3 mph 3.5 mph 66 % 0.00 in 14.0 W/m2 BKN
19:43 56.0 °F 44.8 °F 30.14 in NE 2.7 mph 6.9 mph 66 % 0.00 in 9.0 W/m2 BKN
19:48 55.8 °F 44.6 °F 30.14 in NE 0.1 mph 1.2 mph 66 % 0.00 in 5.0 W/m2 OVC
19:53 55.5 °F 44.3 °F 30.14 in ESE 0.5 mph 2.3 mph 66 % 0.00 in 0.0 W/m2 CLR
19:58 55.3 °F 44.1 °F 30.14 in NE 0.2 mph 3.5 mph 66 % 0.00 in 0.0 W/m2 CLR
20:03 55.0 °F 43.8 °F 30.14 in ENE 0.2 mph 1.2 mph 66 % 0.00 in 0.0 W/m2 CLR
20:08 54.9 °F 43.7 °F 30.15 in NE 0.5 mph 3.5 mph 66 % 0.00 in 0.0 W/m2 CLR
20:13 54.8 °F 43.7 °F 30.15 in NE 0.9 mph 3.5 mph 66 % 0.00 in 0.0 W/m2 CLR
20:18 54.6 °F 43.1 °F 30.14 in East 0.2 mph 2.3 mph 65 % 0.00 in 0.0 W/m2 CLR
20:23 54.5 °F 43.4 °F 30.15 in NE 0.1 mph 1.2 mph 66 % 0.00 in 0.0 W/m2 CLR
20:28 54.3 °F 43.2 °F 30.14 in East 0.4 mph 3.5 mph 66 % 0.00 in 0.0 W/m2 CLR
20:33 54.1 °F 43.0 °F 30.14 in NNE 0.4 mph 2.3 mph 66 % 0.00 in 0.0 W/m2 CLR
20:35 54.0 °F 42.9 °F 30.14 in NE 0.3 mph 2.0 mph 66 % 0.00 in 0.0 W/m2 CLR
20:40 54.0 °F 42.9 °F 30.14 in NE 0.8 mph 3.5 mph 66 % 0.00 in 0.0 W/m2 CLR
20:45 53.9 °F 43.2 °F 30.14 in Calm     67 % 0.00 in 0.0 W/m2 CLR
20:50 53.8 °F 43.1 °F 30.14 in ENE 0.6 mph 2.3 mph 67 % 0.00 in 0.0 W/m2 CLR
20:55 53.7 °F 43.4 °F 30.14 in ENE 0.1 mph 3.0 mph 68 % 0.00 in 0.0 W/m2 CLR
21:00 53.5 °F 43.2 °F 30.14 in Calm   1.0 mph 68 % 0.00 in 0.0 W/m2 CLR
21:05 53.5 °F 43.6 °F 30.14 in Calm   1.2 mph 69 % 0.00 in 0.0 W/m2 CLR
21:06 53.5 °F 43.6 °F 30.14 in ENE 0.3 mph 1.2 mph 69 % 0.00 in 0.0 W/m2 CLR
21:11 53.5 °F 43.6 °F 30.14 in ESE 0.8 mph 3.5 mph 69 % 0.00 in 0.0 W/m2 CLR
21:16 53.5 °F 43.6 °F 30.14 in Calm   1.2 mph 69 % 0.00 in 0.0 W/m2 CLR
21:21 53.4 °F 43.5 °F 30.14 in Calm     69 % 0.00 in 0.0 W/m2 CLR
21:26 53.3 °F 43.8 °F 30.14 in ESE 1.2 mph 3.5 mph 70 % 0.00 in 0.0 W/m2 CLR
21:31 53.3 °F 43.8 °F 30.13 in ESE 0.2 mph 1.2 mph 70 % 0.00 in 0.0 W/m2 CLR
21:36 53.1 °F 43.9 °F 30.13 in Calm   1.2 mph 71 % 0.00 in 0.0 W/m2 CLR
21:41 53.1 °F 43.9 °F 30.13 in NE 0.9 mph 3.5 mph 71 % 0.00 in 0.0 W/m2 CLR
21:46 53.1 °F 44.3 °F 30.13 in East 0.1 mph 1.2 mph 72 % 0.00 in 0.0 W/m2 CLR
21:51 53.0 °F 44.2 °F 30.13 in ENE 0.3 mph 3.5 mph 72 % 0.00 in 0.0 W/m2 CLR
21:56 53.0 °F 44.2 °F 30.13 in ENE 1.0 mph 4.6 mph 72 % 0.00 in 0.0 W/m2 CLR
22:01 52.9 °F 44.5 °F 30.13 in Calm     73 % 0.00 in 0.0 W/m2 CLR
22:06 52.9 °F 44.5 °F 30.13 in Calm     73 % 0.00 in 0.0 W/m2 CLR
22:11 52.8 °F 44.7 °F 30.13 in NNE 0.3 mph 1.2 mph 74 % 0.00 in 0.0 W/m2 CLR
22:16 52.7 °F 44.6 °F 30.13 in Calm   1.2 mph 74 % 0.00 in 0.0 W/m2 CLR
22:21 52.6 °F 44.5 °F 30.13 in East 0.4 mph 3.5 mph 74 % 0.00 in 0.0 W/m2 CLR
22:26 52.5 °F 44.8 °F 30.13 in NNE 0.4 mph 3.5 mph 75 % 0.00 in 0.0 W/m2 CLR
22:31 52.6 °F 45.2 °F 30.13 in NNE 0.2 mph   76 % 0.00 in 0.0 W/m2 CLR
22:36 52.5 °F 45.2 °F 30.13 in Calm     76 % 0.00 in 0.0 W/m2 CLR
22:42 52.5 °F 45.2 °F 30.13 in NE 0.2 mph   76 % 0.00 in 0.0 W/m2 CLR
22:47 52.4 °F 45.1 °F 30.13 in ENE 0.2 mph 1.2 mph 76 % 0.00 in 0.0 W/m2 CLR
22:52 52.3 °F 45.3 °F 30.13 in Calm     77 % 0.00 in 0.0 W/m2 CLR
22:57 52.3 °F 45.6 °F 30.13 in Calm     78 % 0.00 in 0.0 W/m2 CLR
23:02 52.3 °F 45.6 °F 30.13 in Calm     78 % 0.00 in 0.0 W/m2 CLR
23:07 52.3 °F 46.0 °F 30.13 in Calm     79 % 0.00 in 0.0 W/m2 CLR
23:12 52.2 °F 45.9 °F 30.13 in Calm     79 % 0.00 in 0.0 W/m2 CLR
23:17 52.1 °F 46.1 °F 30.13 in Calm     80 % 0.00 in 0.0 W/m2 CLR
23:22 52.0 °F 46.0 °F 30.13 in Calm     80 % 0.00 in 0.0 W/m2 CLR
23:27 52.0 °F 46.3 °F 30.13 in Calm     81 % 0.00 in 0.0 W/m2 CLR
23:32 51.9 °F 46.3 °F 30.12 in Calm     81 % 0.00 in 0.0 W/m2 CLR
23:37 51.8 °F 46.2 °F 30.12 in Calm     81 % 0.00 in 0.0 W/m2 CLR
23:42 51.8 °F 46.5 °F 30.12 in Calm     82 % 0.00 in 0.0 W/m2 CLR
23:47 51.8 °F 46.5 °F 30.12 in Calm   1.2 mph 82 % 0.00 in 0.0 W/m2 CLR
23:52 51.6 °F 46.6 °F 30.12 in East 0.2 mph 2.3 mph 83 % 0.00 in 0.0 W/m2 CLR
23:57 51.5 °F 46.5 °F 30.11 in East 0.2 mph 2.3 mph 83 % 0.00 in 0.0 W/m2 CLR
Air Products Campus Weather
Compliments of Weather Underground - 3.5 mb